Regional Weather Roundup
Issued by NWS

Home | Current Version | Previous Version | Graphics & Text | Print | Product List | Glossary On
Versions: 1 2 3 4 5 6 7 8 9 10 11 12 13 14 15 16 17 18 19 20 21 22 23 24 25 26 27 28 29 30 31 32 33 34 35 36 37 38 39 40 41 42 43 44 45 46 47 48 49 50
941
ASUS43 KLOT 250808
RWRIL

ILLINOIS REGIONAL WEATHER ROUNDUP
NATIONAL WEATHER SERVICE CHICAGO/ROMEOVILLE IL
200 AM CST SUN FEB 25 2018

NOTE: "FAIR" INDICATES FEW OR NO CLOUDS BELOW 12,000 FEET WITH NO
SIGNIFICANT WEATHER AND/OR OBSTRUCTIONS TO VISIBILITY.

* THESE STATIONS ARE NOT UNDER NWS QUALITY CONTROL. THEY ALSO MAY NOT
  REPORT WEATHER SUCH AS PRECIPITATION OR FOG.

ILZ001-002-007-009-015-016-024-250900-
NORTHWEST ILLINOIS

CITY           SKY/WX    TMP DP  RH WIND       PRES   REMARKS
MOLINE         CLOUDY    34  27  75 W16G30    29.72R WCI  24
STERLING*      CLOUDY    33  29  85 W24G36    29.67R WCI  20
SAVANNA*       CLOUDY    32  27  80 W13G31    29.68R WCI  23
$$

ILZ003-004-008-010-011-017-018-250900-
NORTH CENTRAL ILLINOIS

CITY           SKY/WX    TMP DP  RH WIND       PRES   REMARKS
ROCKFORD       CLOUDY    34  27  75 W28G40    29.61R WCI  21
FREEPORT*      CLOUDY    32  28  85 W23G33    29.63R WCI  19
ROCHELLE*      CLOUDY    33  29  86 W26G32    29.65R WCI  20
DE KALB*       CLOUDY    34  31  88 W31G37    29.63R WCI  20
PERU*          CLOUDY    34  28  80 W31G47    29.70R WCI  20
$$

ILZ005-006-012>014-019>023-250900-
NORTHEAST ILLINOIS

CITY           SKY/WX    TMP DP  RH WIND       PRES   REMARKS
CHICAGO-OHARE  CLOUDY    37  31  78 W26G39    29.58R WCI  25
CHICAGO-MIDWAY CLOUDY    39  35  86 W25G41    29.60R WCI  28
AURORA         CLOUDY    36  31  82 W28G39    29.63R WCI  23
LANSING*       CLOUDY    40  39  95 W33G45    29.60R
JOLIET*        CLOUDY    38  35  87 W17G32    29.66R WCI  28
WAUKEGAN       CLOUDY    39  34  82 W20G36    29.49R WCI  29
DUPAGE AIRPORT CLOUDY    35  33  92 W29G43    29.61R WCI  22
KANKAKEE*      CLOUDY    37  35  95 W37G47    29.71R WCI  23
WHEELING       CLOUDY    38  33  82 W29G44    29.57R WCI  26
MORRIS*        CLOUDY    36  32  85 W28G33    29.67R WCI  24
ROMEOVILLE*    CLOUDY    36  33  88 W32G39    29.64R WCI  23
NORTHERLY ISL    N/A     40  35  83 W21         N/A
$$

LMZ740>746-250900-
SOUTHERN LAKE MICHIGAN

STATION/POSITION SKY/WX   TEMP    WIND        PRES    VSBY  WAVE
                          AIR SEA DIR/SP/G                  HT/PER
                          (F)     (DEG/KT/KT) (MB)    (MI)  (FT/S)
HARRISON CRIB              42     270/ 37/ 46   N/A
BURNHAM HARBOR             40     250/ 15/ 24   N/A
CALUMET HARBOR             41     230/ 23/ 41 1000.9R
BURNS HARBOR               45     240/ 28/ 32 1001.0R
MICHIGAN CITY              44     230/ 34/ 37   N/A
$$

ILZ025>027-034>036-040-047-049-050-058-095>099-250900-
WEST-CENTRAL ILLINOIS

CITY           SKY/WX    TMP DP  RH WIND       PRES   REMARKS
QUINCY         MOCLDY    33  28  81 W15       29.86R WCI  23
GALESBURG*     CLOUDY    33  31  90 W14G20    29.78R WCI  23
MACOMB*        MOCLDY   N/A N/A N/A W18G24    29.82R
JACKSONVILLE*  PTCLDY    33  29  84 W13       29.86R WCI  24
PITTSFIELD*    CLEAR     34  30  85 SW13G18   29.88R WCI  25
$$

ILZ028>032-037-038-041>044-048-051>054-059>061-250900-
CENTRAL ILLINOIS

CITY           SKY/WX    TMP DP  RH WIND       PRES   REMARKS
PONTIAC        CLOUDY    37  35  92 W32G41    29.73R WCI  24
BLOOMINGTON    MOCLDY    35  29  78 W31G39    29.75R WCI  22
DECATUR        MOCLDY    38  31  76 W26G35    29.81R WCI  26
PEORIA         CLOUDY    35  29  78 W22G38    29.79R WCI  23
LACON*         CLOUDY    35  29  80 W14G28    29.75R WCI  25
LINCOLN*       CLOUDY    37  33  84 W10G21    29.81R WCI  30
SPRINGFIELD    MOCLDY    36  30  79 W16G25    29.85R WCI  26
TAYLORVILLE    CLOUDY    37  32  83 W23G32    29.86R WCI  25
$$

ILZ033-039-045-046-055>057-062-063-250900-
EAST-CENTRAL ILLINOIS

CITY           SKY/WX    TMP DP  RH WIND       PRES   REMARKS
CHAMPAIGN      CLOUDY    39  35  86 W37G45    29.77R WCI  26
DANVILLE*      CLOUDY    43  37  79 W28G37    29.72R
RANTOUL*       CLOUDY    40  37  87 W31G45    29.75R
MATTOON        CLOUDY    42  35  76 W24G39    29.82R
PARIS*         MOCLDY    44  38  81 W29       29.80R
$$

ILZ079-100>102-250900-
SOUTHWEST ILLINOIS

CITY           SKY/WX    TMP DP  RH WIND       PRES   REMARKS
ALTON          PTCLDY    37  32  84 W26G33    29.92R WCI  24
BELLEVILLE     CLOUDY    42  34  74 W10G23    29.91R
CAHOKIA*       CLOUDY    42  32  67 W13G23    29.93R
SPARTA*        CLOUDY    42  37  82 W14G22    29.94R
$$

ILZ064>066-069>071-074>076-080>082-084>086-088>090-092>094-250900-
SOUTH-CENTRAL ILLINOIS

CITY           SKY/WX    TMP DP  RH WIND       PRES   REMARKS
CARBONDALE     MOCLDY    46  38  73 NW15G23   29.93
CAIRO*         FAIR      49  40  72 W15G28    29.94R
EFFINGHAM*     CLOUDY    44  37  78 SW20G28   29.87R
MARION         CLOUDY    46  37  73 W13G22    29.93R
MT. VERNON     CLOUDY    45  38  76 W14G20    29.90R
CENTRALIA*     CLOUDY    44  37  76 W18G31    29.89R
SALEM*         FAIR      44  35  71 W24G32    29.90R
METROPOLIS*    FAIR      51  41  68 W16G24    29.92R
$$

ILZ067-068-072-073-078-083-087-091-250900-
SOUTHEAST ILLINOIS

CITY           SKY/WX    TMP DP  RH WIND       PRES   REMARKS
LAWRENCEVILLE  MOCLDY    48  39  71 W21G35    29.84R
FLORA*         FAIR      46  37  69 W20G29    29.87R
FAIRFIELD*     CLOUDY    46  39  75 MISG      29.87R
HARRISBURG*    FAIR      47  39  74 W21G31    29.90R
ROBINSON*      FAIR      46  38  73 W22G37    29.83R
CARMI*         FAIR      48  41  77 W23G31    29.88R
$$

ABBREVIATIONS USED IN REMARKS
   TC - TEMPERATURE IN CELSIUS
  WCI - WIND CHILL INDEX
   HX - HEAT INDEX
  VSB - VISIBILITY
$$





USA.gov is the U.S. government's official web portal to all federal, state and local government web resources and services.